Wind_Speed
0 1 1 1 3 2 2 1 2 3 3 4 4 5 5 5 6 6 7 7 7 7 6 6 5 4 4 4 3 3 2 1 1 2 1 1 0 0 1 1 1 1 1 1 2 2 2 2 2
2 1 1 1 2 1 3 3 2 3 3 4 4 5 5 6 6 7 7 7 8 7 7 6 6 5 4 4 4 4 3 2 2 2 2 2 2 1 1 2 1 2 2 2 2 2 2 2 3
3 2 1 0 1 2 3 4 3 3 4 4 4 5 6 6 6 7 7 7 8 8 7 7 6 5 5 4 4 4 4 4 3 3 3 3 3 2 2 2 2 2 2 3 3 3 3 3 3
4 3 2 2 3 4 4 5 4 4 4 4 5 5 6 6 7 8 8 8 8 8 7 7 6 6 5 5 5 5 5 4 4 3 3 4 4 3 3 3 3 3 3 4 4 4 4 4 4
5 4 4 5 6 6 6 6 5 4 5 5 5 5 7 7 7 8 8 9 9 9 8 7 6 6 5 5 5 5 5 5 4 4 4 5 4 4 4 4 4 4 4 4 4 5 5 5 6
5 6 6 7 8 8 8 7 6 5 5 5 5 6 7 7 8 8 9 9 9 9 9 8 6 6 6 6 5 5 5 5 5 5 5 4 4 4 4 4 5 5 6 5 5 6 6 6 6
7 7 8 8 9 9 9 8 7 7 6 6 6 6 7 7 8 9 10 9 9 9 9 8 8 7 6 6 5 5 5 5 5 6 5 5 5 5 5 4 4 5 6 6 6 7 7 7 7
8 8 8 9 10 10 11 10 9 9 8 8 7 7 8 8 9 10 11 11 9 9 9 8 8 8 7 7 6 6 6 5 5 6 6 6 6 6 6 5 5 5 6 6 6 6 7 7 8
9 9 10 11 11 12 12 11 11 10 10 9 9 9 9 10 10 11 12 11 10 10 9 9 9 8 8 8 7 7 6 6 7 7 7 6 6 6 6 6 6 6 6 6 7 7 8 8 8
11 10 11 12 13 13 13 13 13 12 11 10 10 10 10 11 11 11 12 12 11 11 10 9 9 9 9 9 8 8 8 7 7 7 7 7 7 7 7 7 7 8 8 8 8 8 8 9 9
12 12 12 13 13 14 14 14 13 13 12 12 12 12 11 12 12 12 13 12 12 11 11 10 10 10 10 10 9 9 9 8 8 8 7 8 8 8 8 9 9 9 10 10 10 10 10 10 10
13 13 13 13 14 14 14 14 14 13 13 13 13 12 12 13 13 12 12 13 14 13 13 12 11 11 10 10 9 9 9 9 8 9 8 8 9 10 10 10 10 11 11 11 11 11 11 11 12
14 14 14 14 14 15 15 15 15 15 15 14 13 13 14 14 14 14 13 14 14 14 14 13 12 11 11 10 9 9 9 9 9 9 9 9 10 10 11 11 12 12 13 12 13 12 12 12 12
15 14 15 14 14 15 16 15 15 15 15 15 15 15 16 16 15 15 15 15 16 15 15 14 13 12 12 11 11 10 10 10 10 9 9 10 11 11 11 12 13 13 13 13 13 13 13 13 14
16 15 15 15 15 16 16 15 15 15 15 16 16 17 17 16 15 16 16 16 16 16 15 14 14 14 13 12 12 11 11 11 11 11 11 12 12 12 12 12 13 13 13 14 14 14 15 15 15
17 16 17 16 16 17 17 17 17 16 17 17 17 18 17 17 16 17 17 17 17 16 16 15 15 14 14 14 13 12 12 12 12 12 13 13 13 13 13 13 13 14 14 14 15 16 16 17 16
18 18 18 17 17 18 18 18 18 18 17 17 17 18 18 18 18 17 17 17 17 17 16 15 15 15 15 15 14 13 13 14 14 13 13 14 13 13 13 13 14 14 14 15 15 16 16 17 17
19 19 19 19 19 20 20 19 19 18 19 18 18 18 18 18 19 18 18 18 17 17 17 16 16 15 15 15 15 14 14 15 14 14 14 15 15 15 14 14 14 15 15 15 16 17 17 17 18
20 20 20 20 21 21 21 21 20 19 19 19 20 19 19 19 19 19 19 19 18 18 17 17 17 17 16 16 16 15 15 15 16 16 16 16 16 15 15 15 15 15 16 16 16 17 17 18 19
21 21 21 22 22 22 21 21 20 19 19 20 20 19 20 20 20 20 19 19 19 18 18 18 17 17 17 16 16 16 16 16 16 16 16 16 15 14 14 15 15 16 17 17 18 18 19 19 20
22 21 22 23 23 21 21 21 20 19 19 20 20 19 20 20 20 19 19 18 18 18 18 18 18 17 17 17 17 17 16 16 16 17 17 17 16 15 16 16 16 16 17 17 17 18 20 20 21
22 22 23 23 22 20 20 20 19 19 19 19 19 19 20 20 20 19 19 18 18 18 18 19 19 18 18 18 18 17 17 17 17 17 17 17 17 16 16 17 18 18 18 17 17 17 18 20 21
21 21 22 22 22 21 20 20 18 19 18 18 18 19 20 19 20 20 19 19 18 18 18 18 18 19 19 19 18 18 18 18 18 18 18 19 19 18 17 18 19 18 18 18 18 17 17 18 20
21 21 21 21 21 22 20 21 19 19 19 17 17 19 19 20 20 20 20 20 20 19 19 19 19 19 19 19 19 18 18 18 18 18 19 19 20 19 19 19 20 20 19 18 17 17 18 18 19
21 20 20 20 20 21 21 21 20 20 19 18 18 19 19 20 21 22 22 21 20 20 20 20 20 20 19 19 19 19 19 19 20 20 20 20 20 21 21 21 21 21 20 19 18 19 19 19 20
22 21 21 21 20 20 21 22 21 20 19 19 19 20 20 21 21 21 21 21 21 21 21 21 21 20 20 20 20 20 20 20 20 21 21 21 21 21 22 21 21 21 20 20 20 21 21 21 22
23 23 23 23 22 21 21 22 21 21 19 19 20 21 21 21 21 21 21 20 21 21 21 21 21 21 22 22 22 21 21 21 22 22 22 23 22 22 22 22 22 21 21 21 22 22 23 24 24
25 25 24 23 23 23 22 22 21 21 19 19 20 21 21 21 22 21 21 21 21 21 21 21 21 22 23 23 22 23 23 23 23 23 23 23 23 23 23 23 23 22 22 23 23 24 25 26 26
25 25 25 25 25 24 23 22 21 20 20 20 21 21 21 22 22 21 21 21 22 22 21 21 21 22 23 23 23 23 23 23 24 24 24 23 23 24 25 25 24 24 25 24 25 25 26 27 27
26 27 27 26 25 25 24 23 21 21 20 20 20 21 21 21 22 22 22 22 22 22 22 21 22 23 23 24 24 23 24 24 25 24 24 23 24 24 25 25 25 25 26 26 26 26 27 27 27
Wind_Direction
152 120 142 110 54 35 292 315 19 32 24 20 16 17 17 16 14 6 2 359 354 350 347 346 343 339 336 336 332 326 314 313 288 256 249 237 186 184 209 212 215 210 205 204 188 203 214 215 215
245 238 203 161 76 302 303 325 347 5 10 0 6 12 10 2 358 357 354 353 347 343 342 339 334 329 323 325 325 319 302 295 290 269 252 236 231 233 233 238 247 236 232 224 218 213 225 229 222
254 250 222 168 199 234 285 318 330 345 352 351 357 359 356 355 353 352 348 349 343 339 336 331 326 321 313 311 312 308 294 286 283 273 252 240 238 239 248 248 253 238 236 231 229 234 236 235 232
254 250 253 255 261 273 289 303 318 332 335 340 348 349 346 346 348 347 346 344 341 339 332 325 324 317 312 309 304 302 293 283 276 267 254 237 233 243 251 246 251 241 238 234 236 243 246 241 233
250 250 265 270 273 276 283 300 317 322 330 332 337 339 333 332 334 337 338 338 337 332 331 327 323 319 312 307 303 298 293 278 269 264 254 237 232 247 249 250 251 250 243 238 241 244 247 244 235
252 252 253 261 273 275 277 290 305 313 319 321 323 328 327 322 323 326 327 331 334 328 326 322 322 321 314 307 305 297 287 274 263 261 255 245 244 249 250 250 251 252 247 245 243 245 246 246 238
251 248 250 261 271 272 275 284 292 297 304 309 312 314 317 316 315 319 318 323 328 327 322 317 312 309 307 308 306 300 296 282 265 260 251 245 247 247 247 250 260 261 256 247 244 245 248 245 242
254 254 258 266 269 270 273 278 286 288 293 300 304 305 304 313 313 311 311 314 319 320 318 315 310 304 300 302 299 296 293 287 276 266 255 248 247 246 247 254 259 258 259 256 246 245 247 245 242
260 257 257 262 266 269 275 278 279 282 285 292 295 297 297 302 306 308 307 307 310 312 314 314 312 304 300 299 299 300 299 295 287 275 261 253 250 248 247 255 258 259 261 262 259 254 250 248 247
258 255 255 261 264 265 271 274 276 281 281 283 287 291 294 300 303 306 306 302 304 304 306 311 311 303 297 295 295 300 300 295 291 282 265 258 258 254 252 256 258 260 260 259 261 263 257 253 252
260 259 260 262 263 263 268 272 274 276 275 274 278 284 289 296 300 302 306 300 299 299 300 302 306 304 304 302 298 299 298 295 290 284 272 265 264 263 262 261 259 259 259 260 260 262 260 256 254
263 264 261 260 263 264 265 268 269 268 271 274 276 282 288 293 297 297 300 301 296 298 300 299 299 300 306 304 296 295 294 292 290 287 279 273 270 267 265 264 261 262 261 262 261 263 261 257 255
264 265 265 262 262 266 265 265 265 264 268 272 277 281 282 287 292 293 294 296 293 293 296 296 296 300 301 298 292 290 290 289 289 289 280 275 273 272 270 266 264 264 264 263 261 261 260 258 256
265 267 267 266 265 266 265 266 267 264 269 272 276 278 279 283 286 287 289 290 290 289 291 292 293 296 296 294 289 288 289 287 285 281 278 273 273 272 270 271 270 267 265 261 259 259 260 261 260
267 269 271 269 270 269 266 267 267 267 268 272 275 278 278 281 283 284 285 285 285 285 286 289 290 291 290 289 292 291 287 286 284 281 279 276 275 273 272 275 273 269 265 260 258 259 260 260 261
268 270 271 269 268 270 269 268 269 271 269 271 275 277 278 280 281 282 284 284 283 283 284 286 287 288 286 287 289 289 286 283 283 281 281 281 278 278 275 275 275 271 267 261 259 259 260 261 261
269 270 268 269 269 271 271 270 270 271 273 273 276 276 275 277 279 280 281 282 283 283 282 283 285 286 284 285 286 286 286 283 282 281 281 282 282 282 278 276 275 273 270 264 262 262 262 262 262
267 267 268 271 272 270 269 270 270 272 274 276 276 276 275 276 278 277 278 280 281 280 278 279 281 282 283 284 286 284 283 281 280 280 282 284 283 280 278 277 277 274 271 267 263 263 263 263 263
266 266 267 268 268 269 270 270 271 272 272 275 277 276 273 274 277 275 276 279 278 276 276 278 279 280 281 281 282 281 278 279 280 279 279 281 279 278 277 276 277 274 272 269 264 264 264 263 263
263 265 266 267 267 268 270 270 272 272 272 274 275 273 273 274 277 278 277 279 276 274 276 280 281 279 280 280 279 277 275 276 277 276 276 280 279 276 276 274 278 277 276 272 267 264 264 264 262
263 263 263 266 268 269 271 272 272 272 272 274 275 275 275 275 276 276 277 280 278 274 275 278 278 276 276 278 279 279 276 275 275 275 277 280 280 277 278 276 280 281 278 278 273 267 264 263 263
264 263 263 264 266 267 270 271 273 275 273 274 275 275 275 274 274 276 277 278 278 276 275 276 275 274 275 276 276 277 274 273 275 274 276 279 282 280 279 282 284 284 283 279 275 275 270 265 262
263 262 261 262 265 265 267 271 273 276 276 275 276 275 273 273 275 277 278 277 277 277 276 278 277 278 276 273 274 274 274 271 273 274 277 280 281 281 281 285 286 284 282 279 278 277 273 267 264
259 259 260 262 264 265 266 270 271 275 278 278 277 277 275 275 276 278 277 276 277 277 277 278 278 276 275 273 272 274 276 274 272 274 274 277 280 280 281 283 284 282 280 278 275 275 274 273 271
256 256 258 259 260 265 268 268 270 274 277 278 276 276 275 276 278 279 277 276 276 274 274 275 275 273 272 273 274 275 276 274 271 274 274 277 278 279 280 280 281 280 279 278 275 275 276 276 273
254 253 252 256 261 265 268 268 271 274 276 278 279 278 276 276 279 280 277 275 275 274 273 273 271 271 272 272 273 274 276 275 273 273 274 277 276 277 277 278 279 278 277 278 277 276 275 275 274
254 253 254 259 264 267 268 272 271 273 275 277 279 280 279 278 280 279 276 275 275 275 273 273 272 272 273 273 272 273 274 275 273 271 272 274 274 276 278 278 277 276 275 276 278 277 275 275 275
252 254 255 256 260 265 269 271 271 274 278 278 280 280 280 279 279 278 276 274 272 273 273 273 271 272 274 273 274 276 272 272 271 270 270 273 274 276 278 280 278 276 277 278 278 278 277 277 277
254 252 254 256 260 264 268 268 272 273 276 280 282 281 281 279 277 277 275 273 273 272 273 274 274 272 272 272 273 274 270 271 270 270 269 271 273 275 276 278 279 280 280 280 280 279 280 280 279
254 254 255 256 260 264 267 269 272 273 277 280 281 280 280 279 275 275 274 273 273 273 273 275 276 276 273 273 274 274 272 272 272 273 271 272 274 275 276 279 280 280 282 283 283 283 282 281 280
Height
5909 5909 5909 5910 5911 5914 5912 5910 5909 5908 5907 5906 5905 5904 5903 5902 5902 5903 5899 5896 5895 5894 5893 5892 5891 5890 5889 5888 5887 5886 5885 5885 5884 5884 5884 5883 5883 5883 5883 5883 5883 5883 5884 5884 5884 5884 5884 5885 5885
5908 5909 5910 5911 5912 5914 5912 5909 5908 5907 5906 5905 5904 5903 5902 5901 5900 5899 5897 5895 5894 5893 5892 5891 5890 5889 5888 5887 5886 5885 5885 5884 5883 5883 5883 5883 5883 5883 5883 5883 5883 5883 5883 5883 5883 5884 5884 5884 5885
5908 5908 5910 5911 5912 5912 5910 5908 5907 5906 5905 5904 5903 5902 5901 5900 5899 5898 5896 5895 5893 5892 5891 5890 5889 5888 5887 5886 5885 5884 5884 5883 5882 5882 5881 5881 5882 5882 5882 5882 5882 5882 5882 5882 5882 5883 5883 5884 5884
5907 5908 5910 5911 5910 5909 5908 5907 5906 5905 5905 5904 5903 5902 5900 5899 5898 5897 5895 5894 5892 5891 5889 5888 5887 5887 5886 5885 5884 5883 5883 5882 5881 5881 5880 5880 5881 5881 5881 5881 5881 5881 5881 5881 5881 5882 5882 5882 5883
5906 5907 5909 5910 5908 5908 5907 5906 5905 5905 5904 5903 5902 5900 5899 5898 5897 5896 5894 5893 5891 5890 5889 5887 5886 5886 5885 5884 5883 5882 5881 5881 5880 5880 5879 5879 5879 5880 5880 5880 5880 5880 5880 5880 5880 5881 5881 5881 5881
5906 5907 5909 5908 5907 5906 5905 5904 5904 5903 5903 5902 5901 5900 5898 5897 5896 5895 5893 5892 5891 5889 5888 5886 5885 5884 5884 5883 5882 5881 5880 5879 5879 5878 5878 5878 5878 5878 5879 5879 5879 5879 5879 5879 5879 5879 5879 5880 5879
5905 5905 5906 5906 5905 5905 5904 5903 5902 5902 5901 5901 5900 5899 5897 5896 5895 5894 5892 5891 5889 5888 5886 5885 5884 5883 5882 5881 5880 5879 5879 5878 5877 5877 5877 5877 5877 5877 5877 5877 5877 5877 5877 5877 5877 5878 5878 5878 5879
5902 5904 5904 5904 5903 5902 5902 5901 5900 5900 5899 5899 5898 5897 5896 5895 5893 5892 5891 5889 5888 5886 5885 5883 5882 5881 5880 5880 5879 5878 5877 5876 5876 5875 5875 5875 5875 5875 5875 5876 5876 5876 5876 5876 5876 5876 5876 5877 5877
5900 5902 5902 5901 5901 5900 5899 5899 5898 5898 5897 5897 5896 5895 5894 5892 5891 5890 5889 5888 5886 5885 5883 5882 5881 5879 5879 5878 5877 5876 5876 5875 5874 5874 5873 5873 5873 5873 5873 5874 5874 5874 5874 5874 5874 5875 5875 5875 5875
5898 5899 5899 5898 5897 5897 5896 5896 5896 5895 5895 5894 5893 5892 5891 5890 5889 5888 5887 5885 5884 5883 5881 5880 5879 5878 5877 5876 5875 5874 5874 5873 5872 5872 5871 5872 5872 5871 5872 5872 5872 5872 5873 5873 5872 5872 5872 5872 5873
5895 5896 5895 5895 5894 5894 5894 5893 5893 5893 5892 5891 5890 5890 5889 5888 5887 5886 5885 5883 5882 5881 5879 5878 5877 5876 5875 5874 5873 5872 5872 5871 5870 5870 5869 5870 5869 5870 5870 5870 5870 5870 5870 5870 5870 5870 5870 5870 5870
5892 5892 5891 5891 5891 5891 5891 5890 5890 5890 5890 5888 5888 5887 5886 5885 5884 5884 5883 5881 5880 5878 5877 5876 5875 5874 5873 5872 5871 5870 5870 5869 5868 5868 5867 5867 5867 5867 5868 5868 5867 5867 5867 5867 5867 5867 5867 5867 5867
5888 5888 5888 5887 5887 5887 5887 5887 5887 5887 5886 5885 5884 5884 5883 5883 5882 5881 5880 5879 5878 5876 5875 5874 5873 5872 5871 5870 5869 5868 5867 5866 5866 5865 5865 5865 5865 5865 5865 5865 5864 5864 5864 5864 5864 5864 5864 5864 5865
5885 5885 5884 5884 5884 5884 5884 5884 5884 5884 5883 5882 5881 5881 5880 5880 5879 5878 5877 5876 5874 5873 5872 5871 5870 5869 5868 5867 5866 5865 5864 5864 5863 5863 5862 5862 5862 5861 5861 5861 5861 5861 5860 5860 5860 5861 5861 5861 5861
5881 5881 5881 5881 5881 5880 5880 5881 5881 5880 5879 5879 5878 5877 5877 5876 5875 5874 5873 5872 5871 5870 5869 5868 5867 5866 5865 5864 5863 5862 5861 5861 5860 5860 5859 5859 5858 5858 5858 5858 5857 5857 5856 5856 5857 5857 5857 5858 5858
5878 5878 5879 5878 5877 5877 5878 5878 5877 5876 5876 5875 5875 5874 5873 5872 5872 5871 5869 5868 5867 5866 5866 5865 5864 5863 5862 5861 5860 5859 5858 5858 5857 5856 5856 5855 5855 5854 5854 5854 5854 5853 5853 5853 5853 5853 5853 5854 5854
5874 5875 5875 5875 5874 5873 5873 5873 5873 5872 5872 5871 5871 5870 5869 5868 5867 5866 5865 5864 5863 5863 5862 5861 5860 5859 5858 5857 5856 5855 5855 5854 5854 5853 5852 5852 5851 5851 5851 5850 5850 5849 5849 5849 5849 5849 5849 5849 5849
5871 5871 5871 5871 5869 5869 5869 5869 5869 5868 5867 5867 5866 5865 5864 5864 5863 5862 5861 5860 5859 5858 5857 5857 5856 5856 5855 5854 5853 5852 5851 5850 5850 5849 5849 5848 5848 5847 5847 5847 5846 5845 5845 5845 5845 5844 5844 5844 5844
5865 5866 5866 5866 5865 5865 5864 5864 5865 5864 5863 5862 5861 5860 5860 5859 5858 5857 5856 5855 5855 5854 5853 5853 5852 5851 5851 5850 5849 5848 5847 5846 5846 5845 5845 5844 5844 5843 5843 5842 5842 5841 5841 5840 5840 5839 5840 5840 5840
5860 5860 5861 5861 5860 5860 5860 5860 5860 5859 5859 5858 5857 5856 5855 5854 5853 5853 5852 5851 5850 5849 5849 5848 5848 5847 5846 5846 5844 5843 5842 5842 5841 5841 5840 5840 5839 5839 5839 5838 5837 5837 5836 5835 5835 5834 5834 5835 5835
5855 5855 5856 5855 5854 5855 5855 5855 5855 5855 5854 5853 5852 5851 5850 5849 5849 5848 5847 5847 5846 5845 5845 5844 5844 5843 5842 5841 5840 5839 5838 5838 5838 5837 5836 5836 5835 5834 5835 5834 5833 5832 5831 5830 5829 5829 5829 5829 5829
5849 5849 5849 5849 5849 5850 5851 5851 5851 5850 5849 5848 5847 5846 5846 5845 5844 5844 5843 5843 5842 5841 5840 5840 5839 5838 5838 5837 5836 5835 5834 5833 5833 5832 5832 5831 5831 5830 5830 5830 5829 5828 5826 5825 5824 5824 5823 5823 5823
5843 5843 5843 5843 5843 5844 5845 5846 5848 5845 5844 5844 5843 5842 5841 5840 5840 5839 5839 5838 5837 5836 5836 5835 5834 5834 5833 5832 5832 5831 5830 5829 5828 5828 5828 5827 5826 5826 5825 5825 5824 5823 5822 5820 5820 5819 5818 5817 5817
5837 5838 5838 5838 5839 5840 5841 5841 5842 5841 5840 5839 5839 5837 5836 5835 5835 5834 5834 5833 5832 5832 5831 5830 5829 5829 5828 5827 5827 5826 5825 5825 5824 5823 5822 5822 5821 5821 5820 5820 5819 5818 5817 5815 5814 5814 5813 5813 5812
5831 5833 5835 5835 5836 5836 5836 5835 5836 5835 5835 5834 5833 5832 5831 5830 5830 5829 5828 5828 5827 5827 5826 5825 5824 5823 5823 5822 5822 5821 5820 5820 5819 5818 5817 5817 5816 5816 5815 5814 5813 5812 5811 5810 5809 5808 5808 5807 5807
5826 5828 5830 5831 5832 5833 5831 5830 5832 5830 5829 5829 5828 5827 5826 5825 5824 5823 5822 5822 5821 5821 5820 5819 5819 5818 5817 5817 5817 5816 5815 5814 5814 5813 5813 5812 5811 5810 5809 5809 5808 5807 5806 5804 5804 5803 5802 5801 5801
5820 5821 5824 5825 5825 5826 5826 5825 5825 5824 5824 5823 5823 5821 5820 5819 5818 5818 5817 5816 5816 5815 5814 5814 5813 5812 5812 5811 5811 5810 5810 5809 5808 5808 5807 5806 5806 5805 5804 5803 5802 5801 5800 5799 5798 5797 5796 5795 5794
5815 5816 5817 5818 5819 5820 5821 5820 5820 5819 5818 5818 5817 5815 5815 5814 5812 5812 5811 5810 5810 5809 5809 5808 5807 5807 5806 5805 5804 5804 5804 5803 5802 5802 5801 5800 5799 5799 5798 5797 5795 5794 5793 5792 5791 5790 5789 5788 5786
5808 5809 5810 5812 5813 5813 5814 5817 5814 5812 5812 5812 5811 5810 5809 5808 5807 5806 5805 5804 5804 5803 5803 5802 5801 5800 5799 5799 5798 5797 5797 5797 5796 5795 5794 5794 5793 5792 5791 5790 5789 5788 5786 5785 5784 5782 5781 5779 5778
5801 5802 5803 5805 5806 5806 5807 5811 5807 5806 5806 5805 5805 5804 5803 5802 5801 5800 5799 5799 5798 5797 5797 5796 5795 5793 5793 5792 5791 5791 5790 5789 5789 5788 5788 5787 5786 5785 5784 5783 5781 5780 5779 5778 5776 5775 5773 5771 5770